User: anonymous
Location: Unspecified
(0.0000°N, 0.0000°E)
Time: 05:18:57
(UTC+02:00)
Language:

Coronas F rocket - Orbit

View from above orbital plane
View from above orbital plane
View from above satellite
View from above satellite

Ground track
Ground track

The orbit data is extracted from the following two-line orbital elements,

1 26874U 01032B   14211.44352838  .00007131  00000-0  11314-3 0  7408
2 26874 082.4740 297.9598 0013697 251.7608 108.2154 15.53033811728017
Epoch (UTC): 30 July 2014 10:38:40
Eccentricity: 0.0013697
inclination: 82.4740°
perigee height: 398 km
apogee height: 417 km
right ascension of ascending node: 297.9598°
argument of perigee: 251.7608°
revolutions per day: 15.53033811
mean anomaly at epoch: 108.2154°
orbit number at epoch: 72801

The dashed part of the orbit path shows where the satellite is in the earth's shadow,  

DLR